Regional Weather Roundup
Issued by NWS Newport/Morehead, NC

Current Version | Previous Version | Text Only | Print | Product List | Glossary On
Versions: 1 2 3 4 5 6 7 8 9 10 11 12 13 14 15 16 17 18 19 20 21 22 23 24 25 26 27 28 29 30 31 32 33 34 35 36 37 38 39 40 41 42 43 44 45 46 47 48 49 50
000 ASUS42 KMHX 161010 RWRMHX WEATHER ROUNDUP FOR EASTERN NORTH CAROLINA NATIONAL WEATHER SERVICE NEWPORT/MOREHEAD CITY NC 600 AM EDT TUE SEP 16 2014 NOTE: "FAIR" INDICATES FEW OR NO CLOUDS BELOW 12,000 FEET WITH NO SIGNIFICANT WEATHER AND/OR OBSTRUCTIONS TO VISIBILITY NCZ015>017-031-032-045>047-102-103-161100- NORTH COAST CITY SKY/WX TMP DP RH WIND PRES REMARKS EDENTON CLOUDY 71 67 87 SW5 30.05S ELIZABETH CITY MOCLDY 68 64 87 CALM 30.04S KITTY HAWK CLOUDY 69 64 81 CALM 30.04S MANTEO CLOUDY 71 64 80 CALM 30.05S $$ NCZ045>047-081-094-103-104-161100- CENTRAL COAST CITY SKY/WX TMP DP RH WIND PRES REMARKS FRISCO MOCLDY 67 66 97 W5 30.05S SWANQUARTER N/A 73 N/A N/A W3 30.00S $$ NCZ095-097-098-100-101-161100- SOUTHERN COAST CITY SKY/WX TMP DP RH WIND PRES REMARKS BEAUFORT CLOUDY 71 68 90 CALM 30.04F CEDAR ISLAND N/A 72 N/A N/A CALM 30.09S JACKSONVILLE CLOUDY 71 68 90 CALM 30.03F NEWPORT NOT AVBL PINEY ISLAND LGT RAIN 73 67 81 CALM 30.04F WILMINGTON CLOUDY 72 70 93 CALM 30.04S $$ NCZ011>013-027>030-043-044-078>080-089-090>093-098-161100- COASTAL PLAIN CITY SKY/WX TMP DP RH WIND PRES REMARKS AHOSKIE N/A 63 62 98 CALM 30.05S CLINTON CLOUDY 70 70 99 CALM 30.05S ELIZABETHTOWN CLOUDY 71 70 96 CALM 30.05R GOLDSBORO CLOUDY 69 69 98 CALM 30.03S GREENVILLE MOCLDY 68 68 100 CALM 30.06S HAVELOCK CLOUDY 70 66 87 CALM 30.05F KENANSVILLE CLOUDY 68 66 94 CALM 30.06S KINSTON MOCLDY 67 66 96 CALM 30.05S NEW BERN CLOUDY 71 67 87 CALM 30.06S RICHLANDS CLOUDY 70 64 83 CALM 30.04F ROANOKE RAPIDS NOT AVBL ROCKY MOUNT MOCLDY 66 65 96 CALM 30.05S FOG WASHINGTON MOCLDY 69 66 90 CALM 30.05S WHITEVILLE MOCLDY 71 69 94 CALM 30.04F $$ AMZ130-135-150-152-154-156-158-170-250-252-270-ANZ085-086-088-633-658-670-161100- MARINE OBSERVATIONS STATION/POSITION TIME TEMP WIND PRES WAVE SWELL AIR SEA DIR/SP/G HT/PER HT/PER (UTC) (F) (DEG/KT/KT) (MB) (FT/S) (FT/S) CHESAPEAKE LIGHT 0900 71 220/ 11/ 12 1017.4 BUOY 44014 1000 73 79 250/ 6/ 10 1016.9 2/13 2/13 DUCK 1000 72 76 210/ 4/ 6 1016.8 2E DUCK 1000 N/A 2/ 8 OREGON INLET 1000 72 74 260/ 4/ 5 1017.6 BUOY 44095 1000 76 N/A 2/ 7 20E OREGON INLET NOT AVBL HATTERAS CG 1000 73 77 270/ 4/ 5 1017.8 DIAMOND BUOY 1000 75 280/ 6/ 10 1017.4 3/ 7 3/ 7 CAPE LOOKOUT 0900 76 220/ 2/ 2 1017.2 BEAUFORT LAB 1000 72 79 60/ 3/ 4 1016.7 30 SE NEW RIVER 1000 78 82 120/ 2/ 4 1017.5 2/ 8 2/ 8 5 SE WRIGHTSVILL 0900 74 81 170/ 6/ 8 N/A BUOY 41002 0950 79 83 290/ 8/ 10 1017.7 3/ 6 3/ 6 BUOY 41004 1000 81 83 280/ 6/ 6 1017.2 2/ 8 2/ 8 $$

USA.gov is the U.S. government's official web portal to all federal, state and local government web resources and services.